Key West, FL

3:27 AM EDT on September 25, 2016 (GMT -0400)
Key West Naval Air Station

Weather History for KNQX - May, 2014

Change the Weather History Date:

Saturday, May 24, 2014

  Actual Average Record
Temperature  
Mean Temperature 78 °F -  
Max Temperature 84 °F 86 °F 91 °F (1949)
Min Temperature 73 °F 77 °F 70 °F (1992)
Cooling Degree Days 14    
Growing Degree Days 28 (Base 50)    
Moisture  
Dew Point 70 °F    
Average Humidity 74    
Maximum Humidity 85    
Minimum Humidity 61    
Precipitation  
Precipitation 0.00 in - - ()
Sea Level Pressure  
Sea Level Pressure 30.07 in    
Wind  
Wind Speed 5 mph (ESE)    
Max Wind Speed 10 mph    
Max Gust Speed -    
Visibility 10 miles    
Events      
Averages and records for this station are not official NWS values.
T = Trace of Precipitation, MM = Missing Value Source: NWS Daily Summary

Daily Weather History Graph

Daily Weather History Graph

Search for Another Location

Airport or City:

Trip Planner

Search our weather history database for the weather conditions in past years. The results will help you decide how hot, cold, wet, or windy it might be!

Date:

Astronomy

May. 24, 2014 Rise Set
Actual Time 6:39 AM EDT 8:07 PM EDT
Civil Twilight 6:14 AM EDT 8:32 PM EDT
Nautical Twilight 5:44 AM EDT 9:02 PM EDT
Astronomical Twilight 5:13 AM EDT 9:33 PM EDT
Moon 3:40 AM EDT (5/24) 4:27 PM EDT (5/24)
Length of Visible Light 14h 18m
Length of Day
13h 28m
Waning Crescent, 18% of the Moon is Illuminated
May 24
Waning Crescent
May 28
New
Jun 5
First Quarter
Jun 13
Full
Jun 19
Last Quarter

Hourly Weather History & Observations

Time (EDT) Temp. Heat Index Dew Point Humidity Pressure Visibility Wind Dir Wind Speed Gust Speed Precip Events Conditions
12:53 AM 75.0 °F - 69.1 °F 82% 30.08 in 10.0 mi East 5.8 mph - N/A   Clear
1:53 AM 75.0 °F - 70.0 °F 84% 30.07 in 10.0 mi East 4.6 mph - N/A   Clear
2:53 AM 75.0 °F - 70.0 °F 84% 30.06 in 10.0 mi SE 6.9 mph - N/A   Clear
3:53 AM 75.0 °F - 69.1 °F 82% 30.05 in 10.0 mi ESE 5.8 mph - N/A   Scattered Clouds
4:53 AM 73.9 °F - 68.0 °F 82% 30.05 in 10.0 mi SE 3.5 mph - N/A   Clear
5:53 AM 75.0 °F - 69.1 °F 82% 30.05 in 10.0 mi ESE 3.5 mph - N/A   Partly Cloudy
6:53 AM 73.9 °F - 69.1 °F 85% 30.07 in 10.0 mi Calm Calm - N/A   Partly Cloudy
7:53 AM 78.1 °F - 71.1 °F 79% 30.09 in 10.0 mi Calm Calm - N/A   Partly Cloudy
8:53 AM 80.1 °F 82.9 °F 69.1 °F 69% 30.09 in 10.0 mi ENE 3.5 mph - N/A   Scattered Clouds
9:53 AM 82.0 °F 85.9 °F 70.0 °F 67% 30.10 in 10.0 mi NNE 3.5 mph - N/A   Mostly Cloudy
10:53 AM 82.9 °F 86.5 °F 69.1 °F 63% 30.09 in 10.0 mi NNW 6.9 mph - N/A   Mostly Cloudy
11:53 AM 84.0 °F 87.8 °F 69.1 °F 61% 30.09 in 10.0 mi North 8.1 mph - N/A   Mostly Cloudy
12:53 PM 84.9 °F 90.1 °F 71.1 °F 63% 30.09 in 10.0 mi Variable 6.9 mph - N/A   Mostly Cloudy
1:53 PM 84.9 °F 90.1 °F 71.1 °F 63% 30.08 in 10.0 mi ESE 10.4 mph - N/A   Mostly Cloudy
2:53 PM 84.0 °F 89.6 °F 72.0 °F 67% 30.06 in 10.0 mi SE 10.4 mph - N/A   Clear
3:53 PM 84.0 °F 89.6 °F 72.0 °F 67% 30.05 in 10.0 mi SE 8.1 mph - N/A   Clear
4:53 PM 84.0 °F 89.0 °F 71.1 °F 65% 30.04 in 10.0 mi SE 9.2 mph - N/A   Clear
5:53 PM 82.0 °F 85.9 °F 70.0 °F 67% 30.02 in 10.0 mi SE 6.9 mph - N/A   Clear
6:53 PM 81.0 °F 84.1 °F 69.1 °F 67% 30.04 in 10.0 mi SSE 3.5 mph - N/A   Clear
7:53 PM 79.0 °F - 69.1 °F 72% 30.05 in 10.0 mi East 6.9 mph - N/A   Clear
8:53 PM 78.1 °F - 70.0 °F 76% 30.06 in 10.0 mi ESE 4.6 mph - N/A   Clear
9:53 PM 77.0 °F - 71.1 °F 82% 30.08 in 10.0 mi East 3.5 mph - N/A   Clear
10:53 PM 75.9 °F - 71.1 °F 85% 30.08 in 10.0 mi ESE 5.8 mph - N/A   Clear
11:53 PM 77.0 °F - 71.1 °F 82% 30.08 in 10.0 mi SE 6.9 mph - N/A   Clear